Total_Precipitation_Accumulation
0.00 0.01 0.02 0.01 0.01 0.01 0.00 0.02 0.04 0.02 0.02 0.03 0.02 0.03 0.02 0.01 0.01 0.02 0.01 0.01 0.01 0.00 0.01 0.01 0.02 0.02 0.09 0.12 0.02 0.01 0.01 0.02 0.01 0.01 0.00 0.00 0.03 0.01 0.00 0.00 0.00 0.00 0.00 0.00 0.00 0.00 0.00
0.00 0.01 0.01 0.01 0.01 0.01 0.01 0.04 0.02 0.02 0.02 0.02 0.02 0.03 0.02 0.02 0.02 0.02 0.01 0.01 0.01 0.01 0.01 0.02 0.03 0.05 0.09 0.06 0.00 0.00 0.00 0.03 0.05 0.03 0.01 0.00 0.01 0.00 0.00 0.00 0.00 0.00 0.00 0.00 0.00 0.00 0.00
0.01 0.01 0.00 0.00 0.01 0.01 0.03 0.02 0.01 0.02 0.02 0.03 0.02 0.03 0.02 0.03 0.02 0.02 0.02 0.01 0.00 0.01 0.01 0.03 0.05 0.09 0.10 0.04 0.00 0.00 0.00 0.02 0.13 0.11 0.01 0.00 0.02 0.03 0.00 0.00 0.00 0.00 0.00 0.00 0.00 0.00 0.00
0.01 0.00 0.00 0.01 0.00 0.02 0.02 0.01 0.02 0.02 0.02 0.03 0.03 0.03 0.02 0.03 0.03 0.03 0.02 0.02 0.01 0.01 0.02 0.07 0.12 0.16 0.07 0.00 0.00 0.00 0.00 0.01 0.13 0.29 0.21 0.10 0.14 0.14 0.02 0.00 0.00 0.00 0.00 0.00 0.00 0.00 0.00
0.01 0.01 0.01 0.00 0.01 0.02 0.01 0.01 0.02 0.02 0.03 0.03 0.02 0.02 0.02 0.03 0.02 0.01 0.02 0.02 0.01 0.00 0.06 0.14 0.17 0.17 0.05 0.01 0.00 0.01 0.00 0.00 0.07 0.24 0.29 0.30 0.35 0.21 0.11 0.02 0.00 0.00 0.00 0.00 0.00 0.00 0.00
0.01 0.01 0.01 0.00 0.02 0.01 0.01 0.02 0.03 0.03 0.03 0.03 0.02 0.01 0.02 0.02 0.01 0.03 0.03 0.01 0.00 0.00 0.02 0.08 0.12 0.15 0.04 0.01 0.00 0.02 0.03 0.01 0.03 0.20 0.62 0.37 0.21 0.18 0.13 0.06 0.01 0.00 0.00 0.00 0.00 0.00 0.00
0.01 0.00 0.00 0.01 0.01 0.01 0.01 0.03 0.04 0.02 0.02 0.03 0.02 0.02 0.02 0.02 0.03 0.02 0.02 0.00 0.02 0.02 0.05 0.02 0.02 0.03 0.04 0.02 0.02 0.03 0.10 0.03 0.06 0.21 0.61 0.54 0.41 0.14 0.12 0.02 0.00 0.00 0.00 0.00 0.00 0.00 0.00
0.01 0.00 0.01 0.01 0.01 0.00 0.01 0.04 0.03 0.01 0.03 0.03 0.03 0.02 0.02 0.03 0.02 0.00 0.00 0.00 0.08 0.21 0.12 0.01 0.00 0.03 0.10 0.20 0.06 0.06 0.23 0.05 0.04 0.05 0.31 0.40 0.57 0.09 0.09 0.16 0.06 0.00 0.00 0.00 0.00 0.00 0.00
0.01 0.01 0.01 0.01 0.00 0.00 0.03 0.04 0.02 0.01 0.03 0.03 0.03 0.03 0.03 0.02 0.01 0.00 0.00 0.00 0.04 0.22 0.24 0.01 0.01 0.05 0.27 0.34 0.10 0.08 0.20 0.03 0.06 0.03 0.19 0.29 0.29 0.22 0.09 0.37 0.28 0.05 0.00 0.00 0.00 0.00 0.00
0.01 0.01 0.01 0.01 0.00 0.01 0.04 0.04 0.02 0.02 0.03 0.02 0.03 0.02 0.02 0.02 0.01 0.00 0.00 0.00 0.01 0.02 0.05 0.01 0.04 0.12 0.31 0.44 0.13 0.03 0.05 0.06 0.09 0.03 0.06 0.15 0.11 0.23 0.11 0.22 0.30 0.14 0.02 0.00 0.00 0.00 0.00
0.01 0.00 0.01 0.00 0.00 0.02 0.04 0.02 0.01 0.03 0.03 0.02 0.01 0.01 0.02 0.06 0.04 0.01 0.00 0.00 0.00 0.01 0.06 0.10 0.02 0.14 0.49 0.53 0.14 0.12 0.06 0.09 0.06 0.01 0.02 0.02 0.05 0.10 0.09 0.08 0.14 0.09 0.02 0.01 0.00 0.00 0.00
0.01 0.01 0.00 0.00 0.01 0.03 0.03 0.01 0.02 0.04 0.03 0.01 0.01 0.02 0.04 0.02 0.01 0.00 0.00 0.00 0.00 0.00 0.04 0.12 0.03 0.16 0.52 0.38 0.08 0.09 0.07 0.07 0.08 0.01 0.02 0.00 0.02 0.03 0.04 0.02 0.06 0.00 0.00 0.00 0.00 0.00 0.00
0.01 0.00 0.00 0.00 0.01 0.03 0.02 0.01 0.03 0.03 0.01 0.00 0.01 0.02 0.03 0.02 0.02 0.00 0.00 0.00 0.00 0.02 0.14 0.25 0.13 0.20 0.54 0.16 0.07 0.05 0.08 0.08 0.09 0.05 0.07 0.04 0.01 0.00 0.02 0.05 0.01 0.00 0.00 0.00 0.00 0.00 0.00
0.01 0.01 0.01 0.01 0.01 0.02 0.01 0.01 0.03 0.01 0.00 0.00 0.02 0.02 0.01 0.00 0.00 0.00 0.02 0.00 0.04 0.11 0.27 0.14 0.13 0.44 0.40 0.08 0.08 0.16 0.07 0.10 0.06 0.00 0.01 0.02 0.04 0.00 0.00 0.02 0.01 0.00 0.00 0.00 0.00 0.00 0.00
0.01 0.01 0.00 0.00 0.02 0.02 0.01 0.02 0.02 0.00 0.01 0.02 0.01 0.01 0.01 0.02 0.02 0.01 0.01 0.00 0.05 0.17 0.22 0.19 0.39 0.45 0.18 0.09 0.13 0.20 0.03 0.08 0.04 0.00 0.00 0.00 0.00 0.00 0.00 0.00 0.00 0.00 0.00 0.00 0.00 0.00 0.00
0.01 0.01 0.00 0.01 0.02 0.01 0.01 0.02 0.01 0.01 0.00 0.03 0.00 0.00 0.02 0.01 0.00 0.00 0.00 0.00 0.02 0.16 0.35 0.40 0.34 0.13 0.06 0.03 0.09 0.07 0.01 0.03 0.00 0.00 0.00 0.00 0.01 0.00 0.00 0.00 0.00 0.00 0.00 0.00 0.00 0.00 0.00
0.01 0.01 0.01 0.01 0.02 0.00 0.01 0.01 0.01 0.00 0.01 0.01 0.00 0.00 0.00 0.01 0.00 0.00 0.00 0.00 0.04 0.20 0.24 0.16 0.04 0.01 0.00 0.00 0.01 0.00 0.00 0.00 0.00 0.00 0.00 0.00 0.00 0.01 0.00 0.00 0.00 0.00 0.00 0.00 0.00 0.00 0.00
0.02 0.01 0.01 0.02 0.01 0.00 0.01 0.01 0.01 0.00 0.01 0.00 0.00 0.00 0.00 0.00 0.00 0.00 0.01 0.02 0.07 0.10 0.03 0.01 0.00 0.00 0.00 0.00 0.00 0.00 0.00 0.00 0.00 0.00 0.00 0.00 0.00 0.00 0.00 0.00 0.00 0.00 0.00 0.00 0.00 0.00 0.00
0.01 0.02 0.01 0.02 0.01 0.00 0.00 0.00 0.00 0.00 0.02 0.01 0.00 0.00 0.00 0.00 0.00 0.00 0.01 0.04 0.06 0.05 0.01 0.00 0.00 0.00 0.00 0.00 0.00 0.00 0.00 0.00 0.00 0.00 0.00 0.00 0.00 0.00 0.00 0.00 0.00 0.00 0.00 0.00 0.00 0.00 0.00
0.01 0.01 0.01 0.02 0.01 0.00 0.00 0.00 0.00 0.00 0.00 0.00 0.00 0.00 0.00 0.00 0.00 0.00 0.02 0.05 0.05 0.02 0.00 0.00 0.00 0.00 0.00 0.00 0.00 0.00 0.00 0.00 0.00 0.00 0.00 0.00 0.00 0.00 0.00 0.00 0.00 0.00 0.00 0.00 0.00 0.00 0.00
0.02 0.00 0.01 0.02 0.01 0.00 0.00 0.00 0.00 0.00 0.00 0.00 0.00 0.00 0.00 0.00 0.00 0.01 0.06 0.16 0.12 0.04 0.01 0.00 0.00 0.00 0.00 0.00 0.00 0.00 0.00 0.00 0.00 0.00 0.00 0.00 0.00 0.00 0.00 0.00 0.00 0.00 0.00 0.00 0.00 0.00 0.00
0.00 0.00 0.01 0.02 0.00 0.00 0.00 0.00 0.00 0.00 0.00 0.00 0.00 0.00 0.00 0.00 0.00 0.00 0.06 0.14 0.07 0.02 0.00 0.00 0.00 0.00 0.00 0.00 0.00 0.00 0.00 0.00 0.00 0.00 0.00 0.00 0.00 0.00 0.00 0.00 0.00 0.00 0.00 0.00 0.00 0.00 0.00
0.00 0.00 0.01 0.01 0.00 0.00 0.00 0.00 0.00 0.00 0.00 0.00 0.00 0.00 0.01 0.00 0.00 0.00 0.02 0.04 0.04 0.03 0.06 0.01 0.00 0.00 0.00 0.00 0.00 0.00 0.00 0.00 0.00 0.00 0.00 0.00 0.00 0.00 0.00 0.00 0.00 0.00 0.00 0.00 0.00 0.00 0.00
0.00 0.00 0.01 0.01 0.01 0.00 0.00 0.00 0.00 0.00 0.01 0.00 0.00 0.01 0.00 0.00 0.00 0.00 0.01 0.04 0.04 0.02 0.04 0.01 0.00 0.00 0.00 0.00 0.00 0.00 0.00 0.00 0.00 0.00 0.00 0.00 0.00 0.00 0.00 0.00 0.00 0.00 0.00 0.00 0.00 0.00 0.00
0.00 0.00 0.00 0.01 0.01 0.00 0.00 0.00 0.00 0.00 0.00 0.00 0.00 0.01 0.01 0.00 0.00 0.00 0.00 0.02 0.02 0.00 0.00 0.00 0.00 0.00 0.00 0.00 0.00 0.00 0.00 0.00 0.00 0.00 0.00 0.00 0.00 0.00 0.00 0.00 0.00 0.00 0.00 0.00 0.00 0.00 0.00
0.00 0.00 0.00 0.01 0.01 0.00 0.00 0.00 0.00 0.00 0.00 0.00 0.00 0.00 0.01 0.01 0.00 0.00 0.00 0.00 0.00 0.00 0.00 0.00 0.00 0.00 0.00 0.00 0.00 0.00 0.00 0.00 0.00 0.00 0.00 0.00 0.00 0.00 0.00 0.00 0.00 0.00 0.00 0.00 0.00 0.00 0.00
0.01 0.00 0.00 0.01 0.01 0.00 0.00 0.00 0.00 0.00 0.00 0.00 0.00 0.00 0.01 0.01 0.00 0.00 0.00 0.00 0.00 0.00 0.00 0.00 0.00 0.00 0.00 0.00 0.00 0.00 0.00 0.00 0.00 0.00 0.00 0.01 0.01 0.01 0.01 0.01 0.00 0.00 0.00 0.00 0.01 0.01 0.00
0.01 0.00 0.00 0.01 0.01 0.00 0.01 0.00 0.00 0.00 0.00 0.00 0.00 0.00 0.02 0.01 0.00 0.00 0.00 0.00 0.00 0.00 0.00 0.00 0.00 0.00 0.00 0.00 0.00 0.00 0.00 0.00 0.00 0.00 0.00 0.00 0.00 0.00 0.00 0.00 0.00 0.00 0.00 0.00 0.00 0.00 0.00
0.00 0.00 0.00 0.00 0.00 0.01 0.00 0.01 0.01 0.01 0.01 0.01 0.00 0.01 0.01 0.01 0.00 0.00 0.00 0.00 0.00 0.01 0.00 0.00 0.00 0.00 0.00 0.00 0.00 0.00 0.00 0.00 0.00 0.00 0.00 0.00 0.00 0.00 0.00 0.00 0.00 0.00 0.00 0.00 0.00 0.00 0.00